[[{"header":{"parameterUnit":"m.s-1","parameterCategory":1,"la1":30.2991,"la2":30.254,"lo1":-89.0895,"lo2":-89.0444,"dy":0.0017,"dx":0.0017,"nx":28,"ny":28,"refTime":"2024-11-29T03:00:00:Z","depth":0,"parameterNumber":2,"parameterNumberName":"U-component_of_WINDS"},"data":[0,0,0,0,0,0,0,0,0,0,0,0,0,0,0,0,0,0,0,0,0,0,0,0,0,0,0,0,0,0,0,0,0,0,0,0,0,0,0,0,0,0,0,0,0,0,0,0,0,0,0,0,0,0,0,0,0,0,-2.8469,-2.847,0,-2.8554,-2.8555,-2.8556,-2.8528,-2.8526,-2.8524,-2.8522,-2.8606,-2.861,-2.8614,0,0,0,0,0,0,0,0,0,0,0,0,0,-2.8279,-2.8283,-2.8469,-2.847,-2.8471,-2.8554,-2.8555,-2.8556,-2.8528,-2.8526,-2.8523,-2.8521,-2.8605,-2.861,-2.8615,0,0,0,0,0,0,0,0,0,0,0,0,0,-2.8363,-2.8284,-2.8469,-2.8467,-2.8468,-2.8554,-2.8555,-2.8556,-2.8528,-2.8526,-2.8523,-2.852,-2.8604,-2.8609,-2.8615,-2.8707,0,0,-2.8633,-2.8636,0,0,0,0,0,0,0,0,-2.8358,-2.837,-2.8466,-2.8468,-2.8468,-2.8527,-2.8519,-2.8607,-2.8529,-2.8505,-2.8522,-2.8519,-2.8582,-2.859,-2.8612,-2.8711,-2.8715,-2.8634,-2.8637,-2.864,-2.8642,0,0,0,0,0,0,0,-2.8352,-2.8366,-2.8503,-2.8468,-2.8469,-2.8461,-2.847,-2.8535,-2.8558,-2.8507,-2.8505,-2.8516,-2.8582,-2.8606,-2.8613,-2.8716,-2.8634,-2.8639,-2.8643,-2.8645,-2.8892,-2.8895,0,0,0,0,0,0,-2.8346,-2.8361,-2.85,-2.8505,-2.8405,-2.8467,-2.8476,-2.8511,-2.8557,-2.8562,-2.8518,-2.8514,-2.8597,-2.8606,-2.8616,-2.8725,-2.864,-2.8646,-2.8649,-2.8889,-2.8893,-2.8896,0,0,0,0,0,0,-2.8342,-2.8359,-2.8497,-2.8433,-2.845,-2.8473,-2.8512,-2.8514,-2.8538,-2.8566,-2.8569,-2.8539,-2.8595,-2.8608,-2.8684,-2.8728,-2.8648,-2.8654,-2.8886,-2.889,-2.8894,-2.8945,0,0,0,0,0,0,-2.8337,-2.8358,-2.8394,-2.8434,-2.8453,-2.8565,-2.8515,-2.8518,-2.8549,-2.8544,-2.8586,-2.859,-2.8594,-2.8676,-2.869,-2.8734,-2.8658,-2.8882,-2.8888,-2.8893,-2.8939,-2.8951,-2.896,0,0,0,0,0,-2.833,-2.8405,-2.8396,-2.8413,-2.8499,-2.8567,-2.8578,-2.8582,-2.8552,-2.8588,-2.8605,-2.8589,-2.8721,-2.8684,-2.87,-2.8747,-2.8879,-2.8886,-2.8893,-2.8935,-2.8948,-2.896,0,0,0,0,0,0,-2.8369,-2.841,-2.8401,-2.849,-2.8525,-2.8562,-2.8608,-2.8597,-2.8641,-2.8635,-2.8637,-2.8647,-2.8725,-2.8743,-2.8701,-2.8837,-2.8795,-2.8806,-2.8822,-2.8835,-2.8845,-2.8839,-2.8663,0,0,0,0,0,-2.8388,-2.8441,-2.8473,-2.8549,-2.8567,-2.8585,-2.8614,-2.8614,-2.8651,-2.8665,-2.8688,-2.8723,-2.8772,-2.8805,-2.8852,-2.8942,-2.8949,-2.8982,-2.8992,-2.9001,-2.9009,-2.9056,-2.9071,-2.8918,-2.8918,-2.8918,0,0,-2.8428,-2.8456,-2.849,-2.8558,-2.8585,-2.8638,-2.8597,-2.8656,-2.8695,-2.8674,-2.8747,-2.8765,-2.8804,-2.8888,-2.8925,-2.8905,-2.9053,-2.9009,-2.9016,-2.902,-2.9065,-2.9079,-2.9092,-2.8923,-2.8922,-2.8921,0,0,-2.8527,-2.8555,-2.862,-2.8648,-2.869,-2.8701,-2.8716,-2.8755,-2.8766,-2.884,-2.8824,-2.887,-2.8956,-2.8983,-2.9009,-2.9117,-2.9102,-2.9132,-2.9186,-2.9231,-2.9243,-2.9254,-2.9291,-2.9305,-2.914,-2.9141,-2.9141,0,-2.8571,-2.8652,-2.8655,-2.8715,-2.8744,-2.8728,-2.8793,-2.882,-2.8874,-2.8894,-2.8871,-2.8977,-2.9002,-2.9091,-2.9117,-2.9139,-2.9155,-2.9127,-2.9242,-2.9252,-2.9262,-2.9298,-2.9312,-2.9144,-2.9143,-2.9143,-2.9143,0,-2.8703,-2.8759,-2.8807,-2.886,-2.8895,-2.8957,-2.8968,-2.9003,-2.8999,-2.9012,-2.9086,-2.9116,-2.9167,-2.9188,-2.9186,-2.9276,-2.9262,-2.9241,-2.9199,-2.928,-2.9313,-2.9327,-2.9148,-2.9147,-2.9146,-2.9146,0,0,-2.883,-2.8883,-2.8901,-2.8924,-2.8968,-2.9011,-2.9071,-2.9122,-2.9151,-2.9189,-2.9238,-2.931,-2.929,-2.9318,-2.9318,-2.9359,-2.944,-2.9332,-2.9333,-2.935,-2.954,-2.9555,-2.9571,-2.9431,-2.9434,-2.9436,-2.9536,0,-2.8932,-2.9039,-2.9043,-2.914,-2.9191,-2.9175,-2.9227,-2.9259,-2.9272,-2.9316,-2.933,-2.938,-2.935,-2.9367,-2.9406,-2.9422,-2.9478,-2.9415,-2.9476,-2.9478,-2.9466,-2.9589,-2.9606,-2.9699,-2.9549,-2.9551,-2.9553,0,-2.9066,-2.9108,-2.921,-2.9245,-2.9267,-2.9314,-2.936,-2.9402,-2.9437,-2.9443,-2.9475,-2.9468,-2.9528,-2.9485,-2.9567,-2.9524,-2.9549,-2.956,-2.9564,-2.9569,-2.952,-2.9596,-2.9729,-2.9743,-2.9574,-2.9572,-2.9571,0,-2.9147,-2.9229,-2.93,-2.9321,-2.9364,-2.9397,-2.9416,-2.9448,-2.9478,-2.9518,-2.9536,-2.9583,-2.9608,-2.9643,-2.9648,-2.9617,-2.973,-2.9688,-2.9736,-2.9736,-2.976,-2.9758,-2.9898,-2.9778,-2.9777,-2.9777,-2.9777,0,-2.9261,-2.9324,-2.9337,-2.9381,-2.945,-2.9453,-2.9521,-2.9537,-2.9566,-2.9611,-2.96,-2.9643,-2.9648,-2.9692,-2.9696,-2.9762,-2.9774,-2.978,-2.978,-2.9781,-2.978,-2.9796,-2.979,-2.9781,-2.978,-2.9779,-2.9779,0,-2.9363,-2.9375,-2.9451,-2.9485,-2.9495,-2.9544,-2.9572,-2.9613,-2.9624,-2.9682,-2.9695,-2.9713,-2.9763,-2.9772,-2.9832,-2.9835,-2.9914,-2.9908,-2.9902,-2.9901,-2.9948,-2.9943,-3.0103,-3.0123,-2.9991,-2.9992,-2.9993,0,-2.9435,-2.9482,-2.9521,-2.9551,-2.9571,-2.962,-2.965,-2.9654,-2.9685,-2.9727,-2.9763,-2.9812,-2.9852,-2.9934,-2.9951,-2.9996,-2.999,-3.0043,-2.9997,-2.9995,-2.999,-2.9986,-2.999,-3.0052,-3.0053,-3.0054,-3.0055,0,-2.956,-2.9562,-2.9606,-2.9652,-2.9688,-2.9724,-2.9758,-2.9783,-2.9791,-2.9827,-2.9879,-2.9909,-2.997,-3.0019,-3.0063,-3.0081,-3.007,-3.007,-3.0083,-3.0083,-3.0078,-3.008,-2.9925,-3.0066,-3.0065,-3.0064,-3.0064,-3.0063,-2.9648,-2.9689,-2.9722,-2.9771,-2.9796,-2.9828,-2.9868,-2.9883,-2.9927,-2.9976,-2.9976,-3.0032,-3.0063,-3.0122,-3.0143,-3.0186,-3.0169,-3.0189,-3.0194,-3.0198,-3.0202,-3.0071,-3.0194,-3.0194,-3.0194,-3.0194,-3.0193,0,-2.9771,-2.9791,-2.9836,-2.9884,-2.9922,-2.9907,-2.9943,-2.9976,-3.0025,-3.0056,-3.0095,-3.0153,-3.02,-3.022,-3.0266,-3.0296,-3.0292,-3.0308,-3.0305,-3.0309,-3.0215,-3.0199,-3.0311,-3.0311,-3.0311,-3.0311,-3.0311,-3.0311,-2.984,-2.9908,-2.9914,-2.9994,-3.0013,-3.0069,-3.009,-3.0119,-3.0143,-3.0209,-3.0247,-3.026,-3.0286,-3.0333,-3.0375,-3.0379,-3.0396,-3.0415,-3.0417,-3.0328,-3.0316,-3.0305,-3.0289,-3.0418,-3.0419,-3.0507,-3.0508,-3.0508]},{"header":{"parameterUnit":"m.s-1","parameterCategory":1,"la1":30.2991,"la2":30.254,"lo1":-89.0895,"lo2":-89.0444,"dy":0.0017,"dx":0.0017,"nx":28,"ny":28,"refTime":"2024-11-29T03:00:00:Z","depth":0,"parameterNumber":3,"parameterNumberName":"V-component_of_WINDS"},"data":[0,0,0,0,0,0,0,0,0,0,0,0,0,0,0,0,0,0,0,0,0,0,0,0,0,0,0,0,0,0,0,0,0,0,0,0,0,0,0,0,0,0,0,0,0,0,0,0,0,0,0,0,0,0,0,0,0,0,-0.3539,-0.354,0,-0.3609,-0.361,-0.361,-0.3657,-0.3657,-0.3657,-0.3658,-0.3731,-0.3733,-0.3735,0,0,0,0,0,0,0,0,0,0,0,0,0,-0.3448,-0.3449,-0.3539,-0.354,-0.3541,-0.3609,-0.361,-0.3611,-0.3657,-0.3657,-0.3657,-0.3658,-0.3731,-0.3733,-0.3735,0,0,0,0,0,0,0,0,0,0,0,0,0,-0.35,-0.345,-0.3539,-0.3572,-0.3575,-0.3608,-0.361,-0.3611,-0.3657,-0.3657,-0.3658,-0.3658,-0.373,-0.3733,-0.3735,-0.3742,0,0,-0.3743,-0.3744,0,0,0,0,0,0,0,0,-0.3497,-0.3503,-0.3566,-0.357,-0.3574,-0.3624,-0.3605,-0.3655,-0.3657,-0.3626,-0.3658,-0.3658,-0.3696,-0.3701,-0.3713,-0.3745,-0.3748,-0.3743,-0.3745,-0.3746,-0.3746,0,0,0,0,0,0,0,-0.3493,-0.35,-0.3567,-0.3567,-0.3572,-0.3584,-0.3592,-0.3614,-0.3657,-0.3629,-0.3632,-0.364,-0.3698,-0.3711,-0.3715,-0.3749,-0.3743,-0.3745,-0.3747,-0.3748,-0.379,-0.379,0,0,0,0,0,0,-0.3484,-0.3497,-0.3564,-0.3569,-0.3535,-0.3585,-0.3594,-0.3608,-0.3657,-0.3665,-0.3639,-0.3642,-0.3706,-0.3712,-0.3718,-0.3729,-0.3746,-0.3748,-0.375,-0.3791,-0.379,-0.379,0,0,0,0,0,0,-0.3482,-0.3489,-0.3562,-0.3534,-0.3544,-0.3586,-0.3601,-0.3609,-0.3622,-0.3665,-0.3673,-0.3644,-0.3707,-0.3715,-0.3735,-0.3732,-0.3749,-0.3752,-0.3791,-0.3791,-0.379,-0.375,0,0,0,0,0,0,-0.3479,-0.3488,-0.3491,-0.3533,-0.3545,-0.3577,-0.3601,-0.361,-0.3626,-0.3629,-0.3672,-0.368,-0.3708,-0.3731,-0.3738,-0.3736,-0.3753,-0.3792,-0.3791,-0.379,-0.3752,-0.3748,-0.3745,0,0,0,0,0,-0.3476,-0.3477,-0.349,-0.3498,-0.3549,-0.3576,-0.3583,-0.3615,-0.3625,-0.3628,-0.3656,-0.3678,-0.3731,-0.3733,-0.3741,-0.3739,-0.3792,-0.3791,-0.379,-0.3753,-0.3749,-0.3745,0,0,0,0,0,0,-0.3433,-0.3483,-0.3499,-0.3514,-0.354,-0.3584,-0.3589,-0.3609,-0.3634,-0.3636,-0.3675,-0.3685,-0.3701,-0.3723,-0.3724,-0.3749,-0.3764,-0.3765,-0.3734,-0.373,-0.3727,-0.3721,-0.3756,0,0,0,0,0,-0.3426,-0.3443,-0.3486,-0.3495,-0.3508,-0.3546,-0.3559,-0.3581,-0.3611,-0.3622,-0.3652,-0.368,-0.3704,-0.3718,-0.3742,-0.3755,-0.3766,-0.3759,-0.3755,-0.3752,-0.3752,-0.3761,-0.3759,-0.3787,-0.3787,-0.3787,0,0,-0.341,-0.344,-0.3448,-0.3488,-0.3511,-0.3529,-0.3555,-0.3573,-0.3587,-0.3625,-0.3646,-0.3669,-0.3704,-0.3721,-0.373,-0.3739,-0.3747,-0.3751,-0.3748,-0.375,-0.376,-0.3757,-0.3755,-0.3786,-0.3787,-0.3787,0,0,-0.3391,-0.3415,-0.3425,-0.3448,-0.3482,-0.3508,-0.351,-0.3551,-0.3567,-0.3589,-0.3618,-0.3636,-0.3675,-0.3698,-0.3715,-0.3706,-0.3727,-0.3712,-0.3695,-0.3703,-0.3701,-0.3699,-0.3696,-0.3694,-0.3712,-0.3712,-0.3712,0,-0.3367,-0.3395,-0.3428,-0.3444,-0.3461,-0.3496,-0.3507,-0.3528,-0.3569,-0.358,-0.359,-0.3639,-0.3665,-0.3688,-0.3686,-0.3698,-0.3703,-0.3707,-0.3698,-0.3697,-0.3696,-0.3693,-0.3692,-0.371,-0.371,-0.3711,-0.3711,0,-0.3364,-0.3383,-0.3388,-0.3425,-0.3443,-0.3456,-0.3492,-0.3506,-0.3527,-0.3551,-0.3573,-0.3606,-0.3636,-0.3644,-0.3664,-0.367,-0.3675,-0.3691,-0.3707,-0.369,-0.3688,-0.3688,-0.3707,-0.3708,-0.3709,-0.3709,0,0,-0.332,-0.3376,-0.3377,-0.3395,-0.3436,-0.3451,-0.3467,-0.3497,-0.3508,-0.3535,-0.3549,-0.3582,-0.3597,-0.3616,-0.364,-0.3647,-0.3638,-0.3663,-0.3664,-0.3657,-0.3646,-0.3634,-0.3632,-0.3652,-0.3652,-0.3652,-0.3644,0,-0.3307,-0.3336,-0.3366,-0.3385,-0.3403,-0.3437,-0.3451,-0.3478,-0.3501,-0.3521,-0.3547,-0.3569,-0.3588,-0.36,-0.3608,-0.3637,-0.3636,-0.3638,-0.3667,-0.3667,-0.3657,-0.3631,-0.3618,-0.3608,-0.3643,-0.3643,-0.3643,0,-0.3295,-0.332,-0.334,-0.3379,-0.3388,-0.34,-0.343,-0.3448,-0.348,-0.3496,-0.3518,-0.3543,-0.3562,-0.3577,-0.3604,-0.3605,-0.3618,-0.3634,-0.3635,-0.3638,-0.3654,-0.3634,-0.3606,-0.3604,-0.3642,-0.3642,-0.3642,0,-0.326,-0.3299,-0.3316,-0.333,-0.3377,-0.3384,-0.3404,-0.3437,-0.3453,-0.3479,-0.349,-0.3518,-0.3534,-0.3556,-0.3589,-0.3596,-0.3613,-0.363,-0.3627,-0.3627,-0.3629,-0.3628,-0.3602,-0.3638,-0.3638,-0.3638,-0.3638,0,-0.3242,-0.3253,-0.3301,-0.3311,-0.3325,-0.3361,-0.3373,-0.3397,-0.3425,-0.3441,-0.3473,-0.3488,-0.353,-0.355,-0.3576,-0.3595,-0.3601,-0.3616,-0.3623,-0.3613,-0.3611,-0.3622,-0.3624,-0.3638,-0.3638,-0.3638,-0.3638,0,-0.3205,-0.3238,-0.3259,-0.3301,-0.3312,-0.332,-0.3357,-0.3369,-0.3395,-0.3415,-0.3422,-0.3462,-0.3487,-0.3522,-0.3558,-0.3576,-0.3591,-0.3602,-0.358,-0.3584,-0.3579,-0.3579,-0.3559,-0.3559,-0.3594,-0.3594,-0.3594,0,-0.3191,-0.3201,-0.3244,-0.3257,-0.3275,-0.3296,-0.3312,-0.3348,-0.3364,-0.3401,-0.3409,-0.3436,-0.346,-0.3499,-0.3532,-0.356,-0.3572,-0.3563,-0.3576,-0.3566,-0.3572,-0.3571,-0.3572,-0.3559,-0.3559,-0.3558,-0.3558,0,-0.3163,-0.3179,-0.3201,-0.3229,-0.3247,-0.3271,-0.3296,-0.3305,-0.3347,-0.3363,-0.3389,-0.3407,-0.3444,-0.3471,-0.3504,-0.3525,-0.3549,-0.3554,-0.3555,-0.3545,-0.3531,-0.3539,-0.3571,-0.3554,-0.3554,-0.3555,-0.3555,-0.3555,-0.3138,-0.3147,-0.3179,-0.3203,-0.3226,-0.3249,-0.3262,-0.3289,-0.3311,-0.3343,-0.3363,-0.3388,-0.3421,-0.3467,-0.3488,-0.3508,-0.3518,-0.3519,-0.3519,-0.3519,-0.3516,-0.3528,-0.3514,-0.3515,-0.3515,-0.3515,-0.3515,0,-0.3111,-0.3133,-0.3154,-0.3189,-0.3207,-0.3227,-0.3257,-0.3271,-0.3292,-0.332,-0.3343,-0.3373,-0.34,-0.3435,-0.3464,-0.3474,-0.3486,-0.3481,-0.348,-0.3485,-0.3506,-0.3502,-0.3471,-0.3471,-0.3471,-0.3471,-0.3471,-0.3471,-0.3099,-0.3117,-0.3136,-0.3166,-0.3189,-0.3213,-0.3228,-0.3249,-0.3272,-0.3304,-0.3326,-0.3348,-0.338,-0.3412,-0.3437,-0.3447,-0.3457,-0.3448,-0.3461,-0.348,-0.3484,-0.3487,-0.3484,-0.345,-0.345,-0.3439,-0.3439,-0.3439]}]]